Weather in Rosso

Mauritania     16°30′57″N   15°48′05″W
temp.,
°C
wind,
m/s
gust,
m/s
humid.,
%
clouds,
%
prec.,
mm/h
press.,
hPa
HPBL,
m
29 june, wed
wed2900:00+29nw6114570 0.0 1012359
03:00+28sw55525 0.0 1012284
06:00+25w57715 0.0 1012255
09:00+28wnw445711 0.0 1013393
12:00+34nw322938 0.0 1012850
15:00+38nnw22195 0.0 10091405
18:00+39w42192 0.0 10081510
21:00+29wnw885012 0.0 1011394
30 june, thu
thu3000:00+28wnw78550 0.0 1012357
03:00+26w68610 0.0 1011337
06:00+25w68712 0.0 1011351
09:00+28w67580 0.0 1012503
12:00+34w77340 0.0 1012952
15:00+35w88295 0.0 10101143
18:00+32wnw88375 0.0 1010876
21:00+27w78575 0.0 1012476
1 july, fri
fri100:00+26wnw79665 0.0 1012439
03:00+25wnw687340 0.0 1011396
06:00+24w597760 0.0 1011345
09:00+27wnw675667 0.0 1012497
12:00+33nw55316 0.0 1012999
15:00+36nw65250 0.0 10101416
18:00+33wnw76340 0.0 1010978
21:00+27w89613 0.0 1012477
2 july, sat
sat200:00+26wnw79705 0.0 1013477
03:00+25wnw6107220 0.0 1011451
06:00+24nw610745 0.0 1011414
09:00+27nnw57551 0.0 1013465
12:00+35n56245 0.0 1012977
15:00+40nnw57120 0.0 10092116
18:00+34nw99320 0.0 1009640
21:00+28nw811520 0.0 1011426
3 july, sun
sun300:00+27nw712600 0.0 1011450
03:00+26nw611665 0.0 1010407
06:00+25wnw5107014 0.0 1010328
09:00+28nw445260 0.0 1011422
12:00+34s11272 0.0 10111066
15:00+39ssw44214 0.0 10081597
18:00+34w97411 0.0 1009756
21:00+29w77595 0.0 1012396